QPF
0.00 0.00 0.00 0.00 0.00 0.00 0.00 0.00 0.00 0.00 0.00 0.00 0.00 0.00 0.00 0.00 0.00 0.00 0.00 0.00 0.00 0.00 0.00 0.00 0.00 0.00 0.00 0.00 0.00 0.00 0.00 0.00 0.01 0.00 0.00 0.00 0.00 0.00 0.00 0.00 0.00 0.00 0.00 0.00
0.00 0.00 0.00 0.00 0.00 0.00 0.00 0.00 0.00 0.00 0.00 0.00 0.00 0.00 0.00 0.00 0.00 0.00 0.00 0.00 0.00 0.00 0.00 0.00 0.00 0.00 0.00 0.00 0.00 0.00 0.00 0.00 0.00 0.00 0.00 0.02 0.04 0.03 0.02 0.00 0.00 0.00 0.00 0.00
0.00 0.00 0.00 0.00 0.00 0.00 0.00 0.00 0.00 0.00 0.00 0.00 0.00 0.00 0.00 0.00 0.00 0.00 0.00 0.00 0.00 0.00 0.00 0.00 0.00 0.00 0.00 0.00 0.00 0.00 0.00 0.00 0.00 0.00 0.01 0.01 0.05 0.04 0.01 0.00 0.00 0.00 0.00 0.00
0.00 0.00 0.00 0.00 0.00 0.00 0.00 0.00 0.00 0.00 0.00 0.00 0.00 0.00 0.00 0.00 0.00 0.00 0.00 0.00 0.00 0.00 0.00 0.00 0.00 0.00 0.00 0.00 0.00 0.00 0.00 0.00 0.00 0.00 0.00 0.00 0.02 0.02 0.00 0.00 0.00 0.00 0.00 0.00
0.00 0.00 0.00 0.00 0.00 0.00 0.00 0.00 0.00 0.00 0.00 0.00 0.00 0.00 0.00 0.00 0.00 0.00 0.00 0.00 0.00 0.00 0.00 0.00 0.00 0.00 0.00 0.00 0.00 0.00 0.00 0.00 0.00 0.00 0.00 0.00 0.01 0.03 0.02 0.00 0.00 0.00 0.00 0.00
0.00 0.00 0.00 0.00 0.00 0.00 0.00 0.00 0.00 0.00 0.00 0.00 0.00 0.00 0.00 0.00 0.00 0.00 0.00 0.00 0.00 0.00 0.00 0.00 0.00 0.00 0.00 0.00 0.00 0.00 0.00 0.00 0.00 0.00 0.00 0.00 0.00 0.00 0.00 0.00 0.00 0.00 0.00 0.00
0.00 0.00 0.00 0.00 0.00 0.00 0.00 0.00 0.00 0.00 0.00 0.00 0.00 0.00 0.00 0.00 0.00 0.00 0.00 0.00 0.00 0.00 0.00 0.00 0.00 0.00 0.00 0.00 0.00 0.00 0.00 0.00 0.00 0.00 0.00 0.00 0.00 0.00 0.00 0.00 0.00 0.00 0.00 0.00
0.00 0.00 0.00 0.00 0.00 0.00 0.00 0.00 0.00 0.00 0.00 0.00 0.00 0.00 0.00 0.00 0.00 0.00 0.00 0.00 0.00 0.00 0.00 0.00 0.00 0.00 0.00 0.00 0.00 0.00 0.00 0.00 0.00 0.00 0.00 0.00 0.00 0.00 0.00 0.00 0.00 0.00 0.00 0.00
0.00 0.00 0.00 0.00 0.00 0.00 0.00 0.00 0.00 0.00 0.00 0.00 0.00 0.00 0.00 0.00 0.00 0.00 0.00 0.00 0.00 0.00 0.00 0.00 0.00 0.00 0.00 0.00 0.00 0.00 0.00 0.00 0.00 0.00 0.00 0.00 0.00 0.00 0.00 0.00 0.00 0.00 0.00 0.00
0.00 0.00 0.00 0.00 0.00 0.00 0.00 0.00 0.00 0.00 0.00 0.00 0.00 0.00 0.00 0.00 0.00 0.00 0.00 0.00 0.00 0.00 0.00 0.00 0.00 0.00 0.00 0.00 0.00 0.00 0.00 0.00 0.00 0.00 0.00 0.00 0.00 0.00 0.00 0.00 0.00 0.00 0.00 0.00
0.00 0.00 0.00 0.00 0.00 0.00 0.00 0.00 0.00 0.00 0.00 0.00 0.00 0.00 0.00 0.00 0.00 0.00 0.00 0.00 0.00 0.00 0.00 0.00 0.00 0.00 0.00 0.00 0.00 0.00 0.00 0.00 0.00 0.00 0.00 0.00 0.00 0.00 0.00 0.00 0.00 0.00 0.00 0.00
0.00 0.00 0.00 0.00 0.00 0.00 0.00 0.00 0.00 0.00 0.00 0.00 0.00 0.00 0.00 0.00 0.00 0.00 0.00 0.00 0.00 0.00 0.00 0.00 0.00 0.00 0.00 0.00 0.00 0.00 0.01 0.03 0.01 0.01 0.01 0.00 0.00 0.00 0.00 0.00 0.00 0.00 0.00 0.00
0.00 0.00 0.00 0.00 0.00 0.00 0.00 0.00 0.00 0.00 0.00 0.00 0.00 0.00 0.00 0.00 0.00 0.00 0.00 0.00 0.00 0.00 0.00 0.00 0.00 0.00 0.00 0.00 0.00 0.00 0.01 0.00 0.00 0.00 0.01 0.00 0.00 0.00 0.00 0.00 0.00 0.00 0.00 0.00
0.00 0.00 0.00 0.00 0.00 0.00 0.00 0.00 0.00 0.00 0.00 0.00 0.00 0.00 0.00 0.00 0.00 0.00 0.00 0.00 0.00 0.00 0.00 0.00 0.00 0.00 0.00 0.00 0.00 0.00 0.00 0.01 0.00 0.00 0.00 0.00 0.00 0.00 0.00 0.00 0.00 0.00 0.00 0.00
0.00 0.00 0.00 0.00 0.00 0.00 0.00 0.00 0.00 0.00 0.00 0.00 0.00 0.00 0.00 0.00 0.00 0.00 0.00 0.00 0.00 0.00 0.00 0.00 0.00 0.00 0.00 0.00 0.00 0.00 0.00 0.00 0.03 0.01 0.00 0.00 0.00 0.00 0.00 0.00 0.00 0.00 0.00 0.00
0.00 0.00 0.00 0.00 0.00 0.00 0.00 0.00 0.00 0.00 0.00 0.00 0.00 0.00 0.00 0.00 0.00 0.00 0.00 0.00 0.00 0.00 0.00 0.00 0.00 0.00 0.00 0.00 0.00 0.00 0.00 0.00 0.00 0.00 0.00 0.00 0.00 0.00 0.00 0.00 0.00 0.00 0.00 0.00
0.00 0.00 0.00 0.00 0.00 0.00 0.00 0.00 0.00 0.00 0.00 0.00 0.00 0.00 0.00 0.00 0.00 0.00 0.00 0.00 0.00 0.00 0.00 0.00 0.00 0.00 0.00 0.00 0.00 0.00 0.00 0.00 0.00 0.00 0.00 0.00 0.00 0.01 0.00 0.00 0.00 0.00 0.00 0.00
0.00 0.00 0.00 0.00 0.00 0.00 0.00 0.00 0.00 0.00 0.00 0.00 0.00 0.00 0.00 0.00 0.00 0.00 0.00 0.00 0.00 0.00 0.00 0.00 0.00 0.00 0.00 0.00 0.00 0.00 0.00 0.00 0.00 0.00 0.00 0.00 0.00 0.03 0.02 0.00 0.00 0.00 0.00 0.00
0.00 0.00 0.00 0.00 0.00 0.00 0.00 0.00 0.00 0.00 0.00 0.00 0.00 0.00 0.00 0.00 0.00 0.01 0.02 0.01 0.00 0.00 0.00 0.00 0.00 0.00 0.00 0.00 0.00 0.00 0.00 0.00 0.00 0.00 0.00 0.00 0.00 0.00 0.00 0.00 0.00 0.00 0.00 0.00
0.00 0.00 0.00 0.00 0.00 0.00 0.00 0.00 0.00 0.00 0.00 0.00 0.00 0.00 0.00 0.00 0.00 0.00 0.00 0.00 0.00 0.00 0.00 0.00 0.00 0.00 0.00 0.00 0.00 0.00 0.00 0.00 0.00 0.00 0.00 0.00 0.00 0.00 0.00 0.00 0.00 0.00 0.00 0.00
0.00 0.00 0.00 0.00 0.00 0.00 0.00 0.00 0.00 0.00 0.00 0.00 0.00 0.00 0.00 0.00 0.00 0.00 0.00 0.00 0.00 0.00 0.00 0.00 0.00 0.00 0.00 0.01 0.02 0.02 0.01 0.00 0.00 0.00 0.00 0.00 0.00 0.00 0.00 0.00 0.00 0.01 0.00 0.00
0.00 0.00 0.00 0.00 0.00 0.00 0.00 0.00 0.00 0.00 0.00 0.00 0.00 0.00 0.00 0.00 0.00 0.00 0.00 0.00 0.00 0.00 0.00 0.00 0.01 0.01 0.00 0.01 0.02 0.03 0.06 0.07 0.02 0.01 0.00 0.00 0.00 0.00 0.00 0.01 0.00 0.04 0.06 0.07
0.00 0.00 0.00 0.00 0.00 0.00 0.00 0.00 0.00 0.00 0.00 0.00 0.00 0.00 0.00 0.00 0.00 0.00 0.00 0.00 0.00 0.00 0.00 0.00 0.00 0.00 0.00 0.00 0.02 0.02 0.03 0.10 0.22 0.06 0.00 0.00 0.00 0.00 0.01 0.03 0.00 0.01 0.04 0.04
0.00 0.00 0.00 0.00 0.00 0.00 0.00 0.00 0.00 0.00 0.00 0.00 0.00 0.00 0.00 0.00 0.00 0.00 0.00 0.00 0.00 0.00 0.00 0.00 0.00 0.00 0.00 0.00 0.00 0.01 0.02 0.05 0.07 0.09 0.06 0.01 0.00 0.00 0.00 0.00 0.01 0.07 0.08 0.03
0.00 0.00 0.00 0.00 0.00 0.00 0.00 0.00 0.00 0.00 0.00 0.00 0.00 0.00 0.00 0.00 0.00 0.00 0.00 0.00 0.00 0.00 0.00 0.00 0.00 0.00 0.00 0.00 0.00 0.00 0.01 0.02 0.00 0.01 0.07 0.08 0.18 0.22 0.26 0.36 0.57 0.37 0.22 0.13
0.00 0.00 0.00 0.00 0.00 0.00 0.00 0.00 0.00 0.00 0.00 0.00 0.00 0.00 0.00 0.00 0.00 0.00 0.00 0.00 0.00 0.00 0.00 0.00 0.00 0.00 0.00 0.00 0.00 0.00 0.00 0.01 0.00 0.00 0.00 0.06 0.27 0.29 0.28 0.30 0.22 0.13 0.09 0.06
MSLP
1010.06 1009.74 1009.36 1009.47 1009.95 1010.20 1010.11 1009.68 1009.14 1008.07 1008.26 1008.08 1007.37 1006.84 1006.01 1006.93 1007.38 1007.44 1007.80 1008.11 1008.37 1008.38 1008.75 1009.80 1010.57 1011.36 1012.06 1012.73 1013.49 1014.07 1014.76 1015.67 1016.29 1016.73 1017.14 1017.63 1017.63 1017.96 1018.32 1018.39 1018.25 1018.38 1018.22 1018.22
1010.01 1009.43 1009.57 1009.91 1010.01 1010.07 1009.82 1009.33 1008.67 1007.93 1008.05 1007.88 1006.86 1006.14 1005.49 1005.93 1005.87 1006.19 1006.65 1006.94 1007.23 1007.80 1008.38 1009.11 1009.79 1010.59 1011.33 1012.06 1012.88 1013.65 1014.23 1015.04 1015.65 1016.12 1016.60 1017.04 1017.45 1017.98 1018.00 1017.89 1018.19 1018.42 1018.32 1018.31
1009.60 1009.55 1009.61 1009.58 1009.64 1009.61 1009.15 1008.87 1008.53 1008.36 1007.57 1007.25 1006.96 1005.62 1005.04 1005.12 1005.42 1005.58 1005.84 1005.96 1006.30 1006.64 1007.34 1008.24 1009.06 1009.59 1010.57 1011.28 1011.99 1012.95 1013.66 1014.46 1015.13 1015.63 1016.36 1016.97 1017.52 1017.81 1018.00 1017.89 1018.07 1018.18 1018.37 1018.33
1009.47 1009.25 1009.22 1009.20 1009.06 1008.97 1008.33 1008.30 1008.41 1008.17 1007.88 1007.18 1007.13 1005.78 1004.83 1004.84 1004.83 1004.89 1004.81 1005.01 1005.26 1005.87 1006.81 1007.39 1008.11 1008.98 1009.56 1010.41 1011.56 1012.45 1013.16 1013.92 1014.64 1015.31 1015.76 1016.04 1016.33 1016.72 1016.94 1017.20 1017.45 1017.68 1018.09 1018.29
1008.99 1008.87 1008.88 1008.64 1008.21 1008.43 1008.03 1008.28 1008.30 1008.09 1007.76 1007.44 1006.72 1006.34 1004.47 1004.52 1003.91 1003.62 1003.66 1003.90 1004.37 1005.05 1005.82 1006.46 1007.12 1007.83 1008.68 1010.06 1010.91 1011.77 1012.71 1013.42 1013.91 1014.65 1014.99 1015.55 1015.71 1016.03 1016.46 1017.04 1017.26 1017.43 1017.58 1017.95
1008.71 1008.61 1008.36 1007.76 1007.92 1008.00 1007.96 1007.88 1008.07 1008.14 1007.75 1006.90 1006.80 1006.23 1004.17 1003.97 1003.94 1003.01 1003.27 1003.45 1003.86 1004.48 1005.21 1005.80 1006.59 1007.53 1008.40 1009.52 1010.37 1011.33 1012.16 1012.70 1013.35 1014.01 1014.47 1014.97 1015.20 1015.51 1015.91 1016.37 1016.89 1017.05 1017.17 1017.53
1008.15 1007.45 1007.26 1007.32 1007.41 1007.74 1007.80 1007.65 1007.25 1007.15 1007.10 1006.69 1006.97 1006.25 1004.24 1004.00 1003.59 1003.34 1003.04 1003.12 1003.34 1003.97 1004.86 1005.49 1006.12 1006.88 1007.81 1008.62 1009.54 1010.42 1011.30 1011.96 1012.57 1013.30 1013.80 1014.29 1014.80 1015.22 1015.46 1015.89 1016.18 1016.72 1016.96 1017.22
1008.06 1007.08 1006.83 1007.00 1006.64 1006.57 1007.12 1007.20 1007.00 1006.77 1006.84 1006.68 1006.95 1005.46 1003.66 1003.93 1003.64 1003.40 1003.05 1003.00 1003.17 1003.54 1004.09 1004.76 1005.45 1006.17 1007.04 1007.88 1008.73 1009.52 1010.31 1011.04 1011.80 1012.42 1013.07 1013.72 1014.30 1014.77 1015.03 1015.40 1015.61 1015.97 1016.21 1016.50
1008.32 1007.40 1006.89 1006.57 1006.33 1006.59 1007.19 1007.24 1007.02 1006.88 1007.69 1006.93 1005.84 1004.95 1003.79 1003.61 1003.27 1003.06 1003.01 1002.75 1003.05 1003.29 1003.74 1004.23 1004.84 1005.60 1006.34 1007.07 1007.78 1008.49 1009.42 1010.24 1010.99 1011.53 1012.44 1013.07 1013.71 1014.24 1014.44 1014.89 1015.36 1015.61 1015.92 1016.13
1008.89 1008.00 1006.83 1006.37 1006.33 1006.74 1006.66 1006.96 1007.11 1006.91 1006.55 1005.98 1005.47 1004.87 1003.68 1003.22 1003.08 1002.78 1002.63 1002.79 1002.99 1003.21 1003.41 1003.74 1004.12 1004.71 1005.38 1006.20 1007.11 1008.27 1008.97 1009.36 1009.97 1010.74 1011.64 1012.27 1012.95 1013.59 1013.99 1014.48 1014.82 1015.11 1015.44 1015.88
1009.44 1009.12 1007.33 1006.88 1006.25 1006.21 1006.96 1006.81 1007.07 1006.88 1006.48 1005.61 1004.98 1003.90 1003.53 1003.44 1003.62 1003.54 1003.14 1002.90 1003.03 1003.06 1003.12 1003.28 1003.68 1004.25 1004.92 1005.71 1006.64 1007.36 1008.36 1009.15 1009.68 1010.12 1010.84 1011.37 1011.95 1012.82 1013.56 1013.83 1014.15 1014.59 1015.05 1015.46
1010.28 1009.48 1008.04 1007.06 1006.63 1007.03 1006.89 1006.89 1006.86 1006.39 1006.60 1006.39 1005.56 1004.04 1003.78 1003.75 1003.86 1003.94 1003.54 1003.63 1003.81 1003.64 1003.47 1003.51 1003.39 1003.97 1004.51 1005.09 1005.96 1006.83 1007.47 1008.00 1008.52 1009.25 1010.06 1010.62 1011.40 1011.96 1012.59 1013.11 1013.46 1013.85 1014.31 1014.84
1010.62 1010.02 1008.77 1007.34 1007.15 1007.34 1007.35 1007.60 1007.72 1007.57 1007.11 1006.18 1005.25 1004.20 1004.29 1004.54 1004.79 1004.79 1004.61 1004.48 1004.48 1004.26 1003.88 1003.88 1003.98 1004.41 1004.36 1004.85 1005.58 1006.16 1006.75 1007.09 1008.01 1008.81 1009.60 1010.29 1010.65 1011.22 1011.60 1012.26 1012.76 1013.22 1013.61 1014.05
1011.29 1010.70 1009.84 1008.97 1008.43 1008.86 1008.29 1008.13 1008.07 1007.94 1007.21 1006.07 1005.65 1004.99 1004.85 1005.61 1005.82 1005.69 1005.57 1005.51 1005.49 1005.36 1005.10 1004.77 1004.56 1004.64 1004.98 1005.50 1005.79 1006.00 1006.18 1007.11 1007.76 1008.29 1008.79 1009.39 1009.92 1010.33 1010.78 1011.57 1012.10 1012.51 1012.92 1013.40
1011.80 1011.28 1010.93 1010.20 1009.88 1009.56 1009.12 1008.59 1008.19 1008.11 1007.58 1007.05 1006.29 1006.35 1006.54 1007.21 1007.30 1007.19 1007.09 1006.72 1006.48 1006.24 1005.90 1005.64 1005.22 1005.16 1005.21 1005.40 1005.75 1006.08 1006.22 1006.44 1006.76 1007.51 1008.17 1008.74 1009.15 1009.76 1010.49 1011.18 1011.54 1011.86 1012.29 1012.63
1012.63 1012.02 1011.78 1010.88 1010.15 1009.88 1009.46 1008.92 1008.44 1008.10 1007.97 1007.69 1007.47 1007.29 1008.12 1008.23 1008.23 1008.09 1008.03 1007.79 1007.50 1007.24 1006.85 1006.47 1006.12 1005.68 1005.35 1005.32 1005.35 1005.53 1005.74 1005.95 1006.57 1006.66 1007.18 1008.04 1009.01 1009.77 1010.36 1010.92 1011.28 1011.44 1011.58 1011.96
1013.20 1012.72 1012.37 1011.21 1011.10 1010.47 1009.61 1009.25 1009.10 1008.70 1008.66 1008.59 1008.10 1008.65 1008.91 1008.81 1008.92 1009.17 1009.05 1008.81 1008.46 1008.14 1007.74 1007.20 1006.71 1006.42 1006.00 1005.53 1005.25 1005.05 1005.18 1005.60 1005.91 1006.62 1007.50 1008.46 1008.96 1009.81 1010.55 1011.13 1011.30 1011.26 1011.14 1011.23
1013.60 1013.43 1013.08 1011.96 1011.67 1010.65 1010.08 1010.25 1010.08 1009.73 1009.91 1009.99 1009.79 1009.93 1009.90 1009.82 1009.58 1009.95 1009.82 1009.49 1009.12 1008.68 1008.28 1007.78 1007.28 1006.73 1006.25 1005.69 1005.13 1004.89 1004.89 1005.35 1005.71 1006.23 1006.99 1007.63 1008.16 1009.01 1009.27 1010.28 1010.59 1010.57 1011.19 1010.95
1014.28 1013.89 1013.19 1012.77 1011.95 1011.05 1010.77 1010.98 1011.02 1010.89 1010.67 1011.17 1011.02 1010.79 1010.61 1010.29 1009.41 1009.83 1010.00 1010.02 1009.70 1009.25 1008.71 1008.31 1007.71 1007.08 1006.40 1005.85 1005.33 1004.80 1004.76 1005.08 1005.54 1005.75 1006.40 1006.75 1007.04 1006.96 1007.84 1008.62 1010.23 1010.48 1010.30 1010.49
1014.63 1014.40 1013.88 1013.54 1012.54 1011.30 1011.56 1011.68 1011.71 1011.75 1011.18 1011.75 1011.76 1011.53 1011.19 1010.56 1009.78 1009.90 1010.36 1010.26 1009.83 1009.43 1008.89 1008.36 1007.78 1007.02 1006.42 1006.09 1005.47 1004.62 1004.54 1004.81 1005.01 1005.35 1005.85 1006.38 1006.39 1006.58 1007.05 1007.73 1008.94 1009.94 1009.73 1009.74
1014.68 1014.45 1014.03 1013.45 1012.84 1011.80 1012.24 1012.03 1011.81 1011.78 1011.95 1011.94 1012.02 1011.91 1011.80 1011.69 1011.72 1011.24 1010.96 1010.46 1010.12 1009.57 1009.04 1008.41 1007.83 1007.11 1006.51 1006.31 1005.79 1005.12 1004.84 1004.74 1004.75 1005.00 1005.12 1005.67 1006.22 1006.61 1007.31 1008.29 1008.07 1009.13 1009.40 1009.18
1015.15 1014.95 1014.34 1014.25 1013.39 1012.49 1012.76 1012.16 1012.52 1012.16 1012.06 1012.18 1012.08 1012.03 1011.98 1011.79 1011.26 1011.06 1010.57 1010.34 1009.96 1009.46 1008.94 1008.49 1007.96 1007.35 1006.80 1006.36 1005.93 1005.52 1005.32 1005.36 1004.79 1004.88 1004.81 1004.72 1004.94 1005.78 1006.79 1007.38 1007.75 1007.95 1007.80 1008.72
1015.35 1015.25 1015.09 1014.76 1013.13 1012.61 1012.76 1012.90 1012.46 1012.32 1012.21 1011.90 1011.85 1011.64 1011.63 1011.33 1010.84 1010.40 1010.03 1009.72 1009.56 1009.36 1009.01 1008.68 1008.24 1007.58 1007.02 1006.53 1006.05 1005.61 1005.35 1005.20 1004.84 1004.78 1004.54 1004.36 1004.62 1005.18 1006.07 1007.21 1007.51 1007.67 1008.13 1008.35
1015.47 1015.63 1015.06 1014.76 1013.07 1012.86 1012.55 1012.42 1012.34 1012.28 1012.02 1011.49 1011.34 1011.16 1011.09 1010.83 1010.32 1009.80 1009.32 1008.95 1008.87 1008.85 1008.73 1008.48 1008.16 1007.53 1006.82 1006.54 1006.13 1005.73 1005.33 1005.06 1004.92 1004.34 1004.19 1004.05 1004.17 1004.55 1005.39 1006.28 1007.02 1007.31 1007.76 1007.67
1015.27 1015.53 1014.60 1014.06 1013.27 1012.64 1012.21 1012.06 1011.81 1011.54 1011.36 1011.08 1010.74 1010.54 1010.31 1010.05 1009.49 1009.05 1008.64 1008.28 1008.06 1008.06 1008.14 1008.18 1007.81 1007.33 1006.66 1006.31 1006.09 1005.79 1005.23 1004.76 1004.36 1003.98 1004.10 1003.99 1003.84 1004.68 1005.72 1006.35 1007.05 1007.42 1007.72 1007.93
1014.86 1014.45 1014.16 1013.17 1012.77 1012.44 1011.71 1011.32 1011.15 1010.98 1010.60 1010.34 1010.06 1009.67 1009.20 1008.92 1008.46 1008.12 1007.72 1007.57 1007.40 1007.16 1007.21 1007.31 1007.23 1006.91 1006.39 1006.02 1005.56 1005.58 1005.12 1004.48 1004.04 1003.76 1003.91 1003.79 1004.74 1005.29 1005.49 1005.96 1006.51 1006.41 1006.99 1007.48
Thickness
5782 5776 5769 5779 5773 5769 5766 5763 5763 5785 5793 5782 5786 5790 5806 5807 5802 5802 5799 5799 5798 5799 5804 5799 5793 5788 5784 5779 5774 5771 5766 5761 5758 5754 5751 5748 5748 5748 5748 5748 5749 5751 5755 5757
5773 5767 5779 5776 5773 5767 5767 5764 5772 5787 5789 5786 5792 5795 5814 5811 5813 5814 5808 5806 5805 5803 5802 5800 5797 5792 5787 5782 5777 5772 5769 5764 5762 5759 5756 5753 5750 5746 5748 5749 5749 5750 5753 5755
5764 5773 5778 5776 5772 5765 5772 5767 5770 5770 5787 5793 5787 5795 5805 5817 5816 5818 5819 5820 5817 5812 5807 5802 5799 5797 5791 5785 5781 5775 5772 5767 5764 5761 5757 5752 5748 5746 5745 5748 5749 5749 5750 5753
5769 5782 5775 5771 5768 5774 5768 5782 5776 5772 5772 5767 5785 5767 5800 5804 5809 5812 5821 5822 5821 5818 5813 5810 5805 5800 5797 5791 5784 5778 5774 5769 5766 5762 5759 5756 5754 5749 5751 5751 5751 5752 5750 5752
5769 5772 5769 5767 5778 5779 5775 5782 5775 5774 5771 5770 5778 5770 5803 5802 5813 5823 5829 5830 5829 5825 5820 5814 5810 5807 5803 5792 5786 5781 5775 5771 5769 5765 5764 5759 5756 5756 5755 5750 5749 5751 5751 5751
5774 5786 5782 5784 5784 5784 5787 5780 5772 5766 5767 5758 5766 5771 5792 5802 5806 5823 5830 5832 5831 5828 5824 5821 5817 5810 5802 5795 5788 5781 5776 5773 5771 5767 5766 5761 5759 5757 5755 5753 5750 5751 5753 5752
5773 5783 5790 5792 5776 5780 5776 5769 5752 5751 5751 5751 5762 5763 5791 5807 5820 5822 5824 5830 5834 5831 5823 5819 5814 5810 5804 5797 5792 5786 5780 5776 5775 5770 5768 5766 5762 5759 5756 5754 5753 5750 5749 5750
5755 5760 5784 5787 5785 5781 5773 5775 5756 5731 5742 5755 5754 5763 5797 5811 5822 5825 5831 5833 5834 5832 5829 5823 5818 5814 5807 5802 5797 5792 5787 5782 5778 5775 5771 5768 5764 5760 5759 5757 5757 5755 5755 5755
5753 5759 5787 5790 5795 5791 5767 5761 5778 5757 5738 5744 5767 5782 5809 5814 5820 5825 5827 5833 5831 5832 5830 5826 5823 5817 5812 5807 5803 5798 5792 5787 5783 5780 5774 5770 5766 5762 5761 5759 5758 5756 5756 5756
5763 5750 5781 5789 5793 5784 5780 5781 5761 5758 5733 5735 5757 5758 5780 5802 5808 5821 5826 5828 5831 5832 5832 5831 5828 5825 5820 5814 5809 5801 5795 5792 5788 5783 5777 5773 5769 5766 5763 5761 5758 5758 5757 5756
5760 5750 5770 5778 5776 5775 5767 5765 5760 5763 5758 5749 5746 5768 5803 5802 5804 5806 5819 5828 5830 5832 5833 5834 5831 5828 5823 5818 5811 5804 5797 5791 5787 5786 5782 5779 5775 5769 5764 5762 5762 5759 5758 5757
5748 5747 5746 5764 5781 5776 5773 5764 5766 5757 5746 5744 5746 5763 5799 5804 5805 5807 5815 5818 5820 5824 5827 5830 5834 5829 5824 5819 5812 5805 5801 5797 5794 5789 5784 5781 5777 5774 5768 5765 5765 5765 5761 5759
5744 5735 5730 5752 5767 5767 5756 5755 5751 5747 5745 5737 5744 5763 5793 5792 5791 5796 5798 5805 5809 5814 5821 5822 5824 5821 5822 5819 5813 5808 5805 5803 5796 5789 5783 5779 5777 5774 5772 5768 5767 5766 5766 5763
5736 5728 5727 5723 5736 5735 5736 5742 5744 5740 5730 5743 5744 5760 5777 5771 5770 5779 5785 5791 5794 5797 5803 5809 5813 5815 5813 5808 5805 5805 5805 5800 5795 5791 5786 5782 5779 5776 5775 5771 5769 5767 5767 5765
5727 5711 5713 5722 5722 5721 5721 5727 5733 5723 5733 5720 5741 5738 5750 5745 5749 5757 5764 5772 5777 5781 5788 5794 5800 5804 5806 5806 5802 5799 5800 5799 5801 5794 5788 5783 5782 5779 5774 5769 5768 5768 5767 5766
5714 5700 5698 5703 5715 5711 5704 5718 5720 5724 5722 5719 5722 5722 5730 5735 5739 5741 5745 5751 5756 5762 5771 5779 5785 5792 5797 5801 5801 5800 5797 5798 5794 5796 5791 5785 5778 5772 5768 5765 5766 5768 5767 5765
5697 5695 5686 5687 5689 5694 5693 5703 5701 5707 5710 5707 5706 5707 5713 5715 5715 5716 5723 5731 5737 5744 5753 5763 5770 5776 5783 5789 5796 5798 5796 5795 5794 5788 5781 5772 5768 5764 5756 5752 5756 5760 5763 5767
5682 5678 5674 5678 5675 5664 5687 5694 5692 5689 5688 5688 5690 5689 5692 5695 5703 5701 5706 5711 5718 5727 5736 5745 5755 5763 5771 5779 5787 5792 5794 5791 5788 5783 5779 5773 5767 5763 5764 5757 5757 5760 5758 5763
5673 5668 5666 5661 5661 5672 5673 5671 5667 5663 5670 5666 5667 5672 5677 5682 5693 5688 5692 5695 5700 5708 5719 5728 5738 5748 5758 5766 5774 5782 5784 5784 5781 5780 5775 5772 5772 5774 5769 5763 5750 5749 5758 5761
5660 5656 5653 5642 5640 5643 5652 5658 5662 5656 5650 5654 5654 5655 5659 5668 5667 5674 5675 5680 5686 5695 5704 5713 5723 5735 5745 5752 5763 5771 5773 5774 5773 5774 5772 5768 5770 5770 5765 5762 5757 5745 5756 5757
5644 5640 5635 5635 5632 5648 5645 5648 5652 5633 5640 5645 5644 5644 5644 5642 5645 5653 5658 5664 5671 5679 5688 5698 5708 5719 5730 5738 5748 5755 5761 5763 5766 5769 5773 5767 5765 5762 5757 5747 5756 5751 5750 5753
5629 5623 5625 5618 5617 5621 5635 5639 5622 5634 5638 5637 5638 5638 5635 5637 5643 5645 5651 5653 5657 5663 5672 5682 5690 5701 5714 5723 5731 5739 5744 5750 5758 5761 5766 5769 5770 5763 5755 5753 5754 5755 5752 5751
5617 5621 5614 5612 5625 5634 5633 5624 5633 5632 5630 5632 5631 5635 5632 5634 5639 5643 5645 5647 5648 5651 5657 5665 5673 5684 5696 5707 5717 5723 5731 5741 5744 5751 5757 5762 5762 5760 5750 5741 5744 5746 5747 5748
5615 5611 5610 5607 5625 5626 5629 5629 5629 5626 5625 5633 5634 5632 5631 5627 5634 5638 5642 5644 5642 5645 5646 5653 5660 5669 5681 5691 5701 5711 5720 5730 5735 5742 5746 5755 5756 5758 5754 5749 5746 5747 5744 5747
5613 5604 5608 5607 5615 5624 5627 5626 5625 5626 5627 5626 5628 5625 5623 5623 5626 5631 5633 5637 5640 5639 5640 5641 5649 5658 5669 5679 5686 5697 5708 5720 5729 5736 5740 5745 5751 5746 5737 5736 5737 5738 5738 5740
5608 5608 5604 5609 5619 5620 5625 5629 5626 5620 5622 5622 5618 5618 5621 5618 5616 5620 5624 5627 5629 5632 5635 5636 5640 5648 5659 5668 5678 5684 5696 5710 5720 5726 5731 5737 5730 5729 5732 5733 5735 5737 5734 5730